Regional Weather Roundup
Issued by NWS

Home | Current Version | Previous Version | Graphics & Text | Print | Product List | Glossary On
Versions: 1 2 3 4 5 6 7 8 9 10 11 12 13 14 15 16 17 18 19 20 21 22 23 24 25 26 27 28 29 30 31 32 33 34 35 36 37 38 39 40 41 42 43 44 45 46 47 48 49 50
510
ASUS43 KLMK 192310
RWRKY
KENTUCKY REGIONAL WEATHER ROUNDUP
NATIONAL WEATHER SERVICE LOUISVILLE KY
600 PM EST THU JAN 19 2017

NOTE "FAIR" INDICATES FEW OR NO CLOUDS BELOW 12,000 FEET
WITH NO SIGNIFICANT WEATHER AND/OR OBSTRUCTIONS TO VISIBILITY.

KYZ001>023-026-027-061>063-070>075-200000-
WESTERN AND SOUTH CENTRAL KENTUCKY

CITY           SKY/WX    TMP DP  RH WIND       PRES   REMARKS
PADUCAH        CLOUDY    58  56  93 VRB3      29.72S
HENDERSON      CLOUDY    52  48  87 E5        29.76R
OWENSBORO      LGT RAIN  53  52  96 SE10      29.77F
HOPKINSVILLE   LGT RAIN  55  55 100 CALM      29.76F FOG
BOWLING GREEN  LGT RAIN  56  55  97 CALM      29.80S FOG
GLASGOW        LGT RAIN N/A N/A N/A E3        29.81S
$$

KYZ024-025-028>034-038-045-046-053-200000-
NORTH CENTRAL KENTUCKY

CITY           SKY/WX    TMP DP  RH WIND       PRES   REMARKS
LOUISVILLE/SDF RAIN      51  47  86 E6        29.83F FOG
LOUISVILLE/LOU RAIN      51  47  86 E5        29.84F FOG
FORT KNOX      RAIN      50  50  99 E8        29.80F FOG
$$

KYZ035>037-039>044-047>052-055>060-089>105-200000-
NORTHEAST KENTUCKY

CITY           SKY/WX    TMP DP  RH WIND       PRES   REMARKS
LEXINGTON      LGT RAIN  50  42  74 E9        29.86F
COVINGTON      CLOUDY    49  40  71 E12       29.87F
FRANKFORT      CLOUDY    50  43  77 E7        29.84F
$$

KYZ054-064>069-076>088-106>120-200000-
SOUTHEAST KENTUCKY

CITY           SKY/WX    TMP DP  RH WIND       PRES   REMARKS
JACKSON        LGT RAIN  50  43  77 SE3       29.92S
LONDON         PTCLDY    50  47  89 SE6       29.89F
SOMERSET       CLOUDY    50  50 100 SE6       29.88F
MIDDLESBORO    CLOUDY    52  49  92 SW3       29.93F
MONTICELLO     LGT RAIN  55  52  89 VRB7      29.87F
$$





USA.gov is the U.S. government's official web portal to all federal, state and local government web resources and services.